Regional Weather Roundup
Issued by NWS Green Bay, WI

Home | Current Version | Previous Version | Graphics & Text | Print | Product List | Glossary Off
Versions: 1 2 3 4 5 6 7 8 9 10 11 12 13 14 15 16 17 18 19 20 21 22 23 24 25 26 27 28 29 30 31 32 33 34 35 36 37 38 39 40 41 42 43 44 45 46 47 48 49 50

000
ASUS43 KGRB 230859
RWRGRB

NORTH-CENTRAL AND NORTHEAST WISCONSIN REGIONAL WEATHER ROUNDUP
NATIONAL WEATHER SERVICE GREEN BAY WI
400 AM CDT WED JUL 23 2014

WIZ005-009-010>012-018-019-231000-
NORTH CENTRAL WISCONSIN

CITY           SKY/WX    TMP DP  RH WIND       PRES   REMARKS
IRONWOOD       CLEAR     54  50  87 E3        30.16R
MANITOWISH WTR NOT AVBL
ARBOR VITAE    NOT AVBL
EAGLE RIVER    NOT AVBL
LAND O LAKES   NOT AVBL
RHINELANDER    CLEAR     54  53  97 CALM      30.19R
PHILLIPS       PTCLDY    52  52  99 CALM      30.17S
ANTIGO         NOT AVBL
TOMAHAWK       CLEAR     48  47  96 CALM      30.18S FOG
MERRILL        NOT AVBL
$$

WIZ013-073-231000-
NORTHEAST WISCONSIN

CITY           SKY/WX    TMP DP  RH WIND       PRES   REMARKS
IRON MOUNTAIN  PTCLDY    55  52  89 N3        30.14S
MARINETTE      CLEAR     55  52  88 N6        30.12S
$$

WIZ017-030-035>037-045-231000-
CENTRAL WISCONSIN

CITY           SKY/WX    TMP DP  RH WIND       PRES   REMARKS
MEDFORD        NOT AVBL
WAUSAU         CLEAR     58  56  93 NW3       30.16S
MOSINEE        CLEAR     55  55 100 N3        30.18S
MARSHFIELD     CLEAR     58  56  93 CALM      30.17S
WISC RAPIDS    CLEAR     60  57  89 N7        30.17S
STEVENS POINT  NOT AVBL
WAUPACA        CLEAR     59  57  94 N3        30.16R
SHAWANO        CLEAR     60  55  85 NW5       30.15S
CLINTONVILLE   CLEAR     57  55  94 CALM      30.14S
$$

WIZ038-039-048-051-231000-
FOX VALLEY

CITY           SKY/WX    TMP DP  RH WIND       PRES   REMARKS
NWS GREEN BAY  CLEAR     59  56  89 N7        30.13S
APPLETON       NOT AVBL
OSHKOSH        CLEAR     61  55  81 N7        30.13R
FOND DU LAC    MOCLDY    65  55  70 N10       30.14R
$$

WIZ022-050-052-231000-
EAST CENTRAL WISCONSIN

CITY           SKY/WX    TMP DP  RH WIND       PRES   REMARKS
STURGEON BAY   MOCLDY    61  54  77 N8        30.13R
MANITOWOC      NOT AVBL
SHEBOYGAN      CLEAR     58  55  90 NW6       30.12R
$$

LMZ563-521-522-541>543-231000-
LAKESHORE

STATION/POSITION TIME  TEMP    WIND        PRES    VSBY  WAVE
                       AIR SEA DIR/SP/G                  HT/PER
                 (UTC) (F)     (DEG/KT/KT) (MB)    (MI)  (FT/S)
SHEBOYGAN LKSHOR 0800   58      10/ 15/ 16 1019.5S
KEWAUNEE LKSHORE 0800   59     320/  3/  4 1020.3R
NORTHPORT PIER   0800   62     350/ 12/ 16 1019.6R
N MID LAKE BUOY  0800   55 51  330/ 12/ 12 1018.4R         2/ 5
CHAMBERS ISLAND  0800   62     340/ 10/ 12 1019.6S
MENOMINEE LKSHOR 0800   56     310/  6/  8 1020.7R
$$



USA.gov is the U.S. government's official web portal to all federal, state and local government web resources and services.